Date String (YYYY-MM-DD hh:mm:ss) UTC,Instrument flags,Ambient pressure (hPa),Sample flow (lpm),Bypass flow (lpm),Sample temperature (°C),Ambient temperature (°C),ASC tube jacket temperature (°C),LED temperature (°C),Box temperature (°C),Sample RH (%),Span deviation,Mass concentration (μg/m³),Mass concentration (μg/m³),Mass concentration (μg/m³)
DateTimeUTC,F1_M11,P_M11,Q1_M11,Q2_M11,T1_M11,T2_M11,T3_M11,T4_M11,T5_M11,U1_M11,ZSPAN_M11,X2_M11,X0_M11,X1_M11
2023-02-16 16:00:00,,0828.1,4.99,0.00,22.6,23.7,00.0,31.2,24.6,06.0,0000.0,0003.75,0006.07,0003.39
2023-02-16 16:01:00,,0828.2,5.03,0.00,22.6,23.0,00.0,31.2,24.5,06.0,0000.0,0003.77,0006.05,0003.40
2023-02-16 16:02:00,,0828.2,5.01,0.00,22.6,22.4,00.0,31.3,24.4,06.0,0000.0,0003.76,0005.95,0003.41
2023-02-16 16:03:00,,0828.2,5.00,0.00,22.6,22.0,00.0,31.3,24.4,06.1,0000.0,0003.77,0005.86,0003.42
2023-02-16 16:04:00,,0828.3,4.98,0.00,22.6,21.7,00.0,31.3,24.4,06.1,0000.0,0003.75,0005.43,0003.42
2023-02-16 16:05:00,,0828.2,5.01,0.00,22.6,21.5,00.0,31.3,24.3,06.1,0000.0,0003.74,0005.37,0003.42
2023-02-16 16:06:00,,0828.2,4.97,0.00,22.6,21.3,00.0,31.3,24.3,06.1,0000.0,0003.74,0005.37,0003.43
2023-02-16 16:07:00,,0828.2,5.00,0.00,22.6,21.2,00.0,31.3,24.3,06.1,0000.0,0003.74,0005.38,0003.44
2023-02-16 16:08:00,,0828.3,4.98,0.00,22.6,21.1,00.0,31.3,24.3,06.1,0000.0,0003.70,0005.21,0003.44
2023-02-16 16:09:00,,0828.3,4.98,0.00,22.5,21.0,00.0,31.3,24.2,06.2,0000.0,0003.69,0005.36,0003.45
2023-02-16 16:10:00,,0828.1,5.00,0.00,22.5,20.8,00.0,31.3,24.2,06.1,0000.0,0003.67,0005.44,0003.45
2023-02-16 16:11:00,,0828.1,5.05,0.00,22.5,20.7,00.0,31.3,24.1,06.0,0000.0,0003.66,0005.37,0003.45
2023-02-16 16:12:00,,0828.1,5.05,0.00,22.4,20.6,00.0,31.3,24.1,06.0,0000.0,0003.68,0005.39,0003.49
2023-02-16 16:13:00,,0828.1,4.97,0.00,22.4,20.5,00.0,31.3,24.0,06.2,0000.0,0003.93,0005.85,0003.71
2023-02-16 16:14:00,,0828.4,5.00,0.00,22.4,20.7,00.0,31.3,24.1,06.4,0000.0,0004.33,0006.59,0004.10
2023-02-16 16:15:00,,0828.3,4.98,0.00,22.5,22.4,00.0,31.2,24.4,06.4,0000.0,0004.53,0007.01,0004.28
2023-02-16 16:16:00,,0828.3,4.97,0.00,22.6,23.8,00.0,31.3,24.7,06.3,0000.0,0004.61,0007.14,0004.36
2023-02-16 16:17:00,,0828.2,5.00,0.00,22.7,23.4,00.0,31.3,24.7,06.2,0000.0,0004.64,0007.31,0004.38
2023-02-16 16:18:00,,0828.1,5.03,0.00,22.7,22.7,00.0,31.4,24.6,06.0,0000.0,0004.64,0007.30,0004.38
2023-02-16 16:19:00,,0828.1,4.98,0.00,22.7,21.9,00.0,31.4,24.3,06.0,0000.0,0004.66,0007.38,0004.37
2023-02-16 16:20:00,,0828.2,4.99,0.00,22.6,21.2,00.0,31.4,24.1,06.0,0000.0,0004.63,0007.11,0004.36
2023-02-16 16:21:00,,0828.2,5.01,0.00,22.5,20.8,00.0,31.4,24.0,06.2,0000.0,0004.63,0006.98,0004.35
2023-02-16 16:22:00,,0828.3,5.01,0.00,22.4,20.7,00.0,31.4,24.0,06.4,0000.0,0004.64,0007.06,0004.34
2023-02-16 16:23:00,,0828.4,5.01,0.00,22.4,20.7,00.0,31.4,24.1,06.4,0000.0,0004.62,0007.10,0004.31
2023-02-16 16:24:00,,0828.4,5.00,0.00,22.4,20.8,00.0,31.4,24.1,06.3,0000.0,0004.43,0006.74,0004.13
2023-02-16 16:25:00,,0828.3,5.03,0.00,22.4,20.8,00.0,31.3,24.1,06.3,0000.0,0003.99,0005.86,0003.71
2023-02-16 16:26:00,,0828.2,5.01,0.00,22.4,20.7,00.0,31.3,24.1,06.3,0000.0,0003.76,0005.35,0003.50
2023-02-16 16:27:00,,0828.1,4.98,0.00,22.4,20.5,00.0,31.3,24.0,06.2,0000.0,0003.64,0005.12,0003.39
2023-02-16 16:28:00,,0828.2,5.02,0.00,22.3,20.2,00.0,31.3,23.8,06.1,0000.0,0003.61,0005.06,0003.34
2023-02-16 16:29:00,,0828.3,5.04,0.00,22.2,20.1,00.0,31.3,23.7,06.1,0000.0,0003.58,0004.98,0003.33
2023-02-16 16:30:00,,0828.3,5.03,0.00,22.2,20.9,00.0,31.2,23.8,06.2,0000.0,0003.57,0004.94,0003.32
2023-02-16 16:31:00,,0828.3,5.01,0.00,22.3,22.7,00.0,31.2,24.2,06.4,0000.0,0003.54,0004.81,0003.31
2023-02-16 16:32:00,,0828.4,4.95,0.00,22.5,23.2,00.0,31.2,24.5,06.4,0000.0,0003.53,0005.12,0003.30
2023-02-16 16:33:00,,0828.4,4.96,0.00,22.5,22.7,00.0,31.3,24.5,06.3,0000.0,0003.53,0005.22,0003.30
2023-02-16 16:34:00,,0828.3,4.97,0.00,22.6,22.3,00.0,31.3,24.4,06.2,0000.0,0003.52,0005.23,0003.29
2023-02-16 16:35:00,,0828.3,4.99,0.00,22.5,21.7,00.0,31.3,24.2,06.1,0000.0,0003.50,0005.17,0003.27
2023-02-16 16:36:00,,0828.3,5.00,0.00,22.5,21.3,00.0,31.3,24.1,06.1,0000.0,0003.50,0005.88,0003.26
2023-02-16 16:37:00,,0828.2,4.99,0.00,22.4,21.0,00.0,31.3,23.9,06.1,0000.0,0003.50,0005.99,0003.26
2023-02-16 16:38:00,,0828.3,5.02,0.00,22.3,20.7,00.0,31.3,23.8,06.2,0000.0,0003.53,0006.19,0003.25
2023-02-16 16:39:00,,0828.3,5.00,0.00,22.3,20.4,00.0,31.3,23.7,06.2,0000.0,0003.55,0006.32,0003.25
2023-02-16 16:40:00,,0828.3,5.00,0.00,22.2,20.3,00.0,31.3,23.7,06.3,0000.0,0003.58,0006.41,0003.27
2023-02-16 16:41:00,,0828.3,5.01,0.00,22.2,20.3,00.0,31.2,23.8,06.4,0000.0,0003.61,0006.51,0003.30
2023-02-16 16:42:00,,0828.3,5.01,0.00,22.2,20.3,00.0,31.2,23.8,06.4,0000.0,0003.67,0006.69,0003.32
2023-02-16 16:43:00,,0828.3,5.03,0.00,22.2,20.3,00.0,31.2,23.8,06.5,0000.0,0003.68,0006.46,0003.34
2023-02-16 16:44:00,,0828.3,5.00,0.00,22.2,20.2,00.0,31.2,23.7,06.5,0000.0,0003.70,0006.33,0003.35
2023-02-16 16:45:00,,0828.3,5.01,0.00,22.1,20.1,00.0,31.1,23.7,06.4,0000.0,0003.70,0006.26,0003.36
2023-02-16 16:46:00,,0828.3,4.97,0.00,22.1,20.3,00.0,31.1,23.7,06.4,0000.0,0003.77,0006.55,0003.39
2023-02-16 16:47:00,,0828.3,5.06,0.00,22.2,21.9,00.0,31.1,24.0,06.5,0000.0,0003.78,0005.96,0003.40
2023-02-16 16:48:00,,0828.4,5.01,0.00,22.3,23.1,00.0,31.1,24.4,06.2,0000.0,0003.79,0005.89,0003.42
2023-02-16 16:49:00,,0828.3,5.00,0.00,22.4,22.8,00.0,31.1,24.4,06.2,0000.0,0003.78,0005.80,0003.42
2023-02-16 16:50:00,,0828.4,4.99,0.00,22.4,22.2,00.0,31.2,24.2,06.2,0000.0,0003.75,0005.63,0003.42
2023-02-16 16:51:00,,0828.3,5.01,0.00,22.4,21.6,00.0,31.2,24.1,06.5,0000.0,0003.71,0005.61,0003.41
2023-02-16 16:52:00,,0828.3,4.99,0.00,22.4,21.3,00.0,31.2,24.1,06.4,0000.0,0003.69,0005.76,0003.39
2023-02-16 16:53:00,,0828.3,5.00,0.00,22.4,21.1,00.0,31.2,24.1,06.5,0000.0,0003.68,0005.85,0003.37
2023-02-16 16:54:00,,0828.3,5.00,0.00,22.4,21.0,00.0,31.2,24.1,06.4,0000.0,0003.66,0005.86,0003.36
2023-02-16 16:55:00,,0828.3,5.00,0.00,22.4,20.9,00.0,31.2,24.1,06.4,0000.0,0003.64,0005.82,0003.34
2023-02-16 16:56:00,,0828.4,4.99,0.00,22.4,20.9,00.0,31.2,24.1,06.5,0000.0,0003.66,0005.92,0003.34
2023-02-16 16:57:00,,0828.3,5.00,0.00,22.4,20.8,00.0,31.2,24.1,06.4,0000.0,0003.60,0005.61,0003.32
2023-02-16 16:58:00,,0828.3,4.98,0.00,22.3,20.7,00.0,31.2,24.0,06.3,0000.0,0003.57,0005.51,0003.30
2023-02-16 16:59:00,,0828.4,5.00,0.00,22.3,20.7,00.0,31.2,24.0,06.3,0000.0,0003.56,0005.54,0003.29
